Weather Roundup
Issued by NWS

Home | Current Version | Previous Version | Text Only | Print | Product List | Glossary On
Versions: 1 2 3 4 5 6 7 8 9 10 11 12 13 14 15 16 17 18 19 20 21 22 23 24 25 26 27 28 29 30 31 32 33 34 35 36 37 38 39 40 41 42 43 44 45 46 47 48 49 50
547
NZUS93 KARX 030510
HRRWXR

CURRENT HOURLY OBSERVATIONS ACROSS
MUCH OF THE UPPER MISSISSIPPI VALLEY
NATIONAL WEATHER SERVICE LA CROSSE WI
1200 AM CDT TUE MAY 03 2016


...SOUTHEAST MINNESOTA...


CITY           SKY/WX    TMP DP  RH WIND       PRES   REMARKS
ROCHESTER      PTCLDY    47  42  83 SW8       30.02F
ROCHESTER/MAYO FAIR      54  38  55 SW10      30.01F
WINONA         PTCLDY    50  41  71 CALM      30.00F
AUSTIN         CLEAR     46  39  76 SW5       30.02F
ALBERT LEA     CLEAR     48  45  87 SW3       30.02F
DODGE CENTER   PTCLDY    45  37  76 SW7       30.01F
PRESTON        CLEAR     47  38  72 SW7       30.02F
OWATONNA       CLEAR     48  37  66 S3        30.01F
FARIBAULT      CLEAR     50  37  62 SW3       30.01F
$$

...ELSEWHERE IN MINNESOTA...


CITY           SKY/WX    TMP DP  RH WIND       PRES   REMARKS
MINNEAPOLIS    CLEAR     56  34  43 SW7       29.99F
INTNL FALLS    CLOUDY    38  33  82 SW3       29.88F
DULUTH         PTCLDY    48  30  49 SW6       29.94F
RED WING       CLEAR     45  37  76 CALM      29.99S
REDWOOD FALLS  CLEAR     50  37  61 SW8       30.00F
MANKATO        CLEAR     54  36  50 SW6       30.01F
WORTHINGTON    NOT AVBL
FAIRMONT       CLEAR     48  27  43 CALM      30.02F
$$

...SOUTHWEST WISCONSIN...


CITY           SKY/WX    TMP DP  RH WIND       PRES   REMARKS
LA CROSSE      CLEAR     50  41  71 S5        30.00S
PRAIRIE DU CHI CLEAR     44  40  84 CALM      30.01F
BOSCOBEL       PTCLDY    45  40  82 SW3       30.01F
LONE ROCK      PTCLDY    45  41  86 CALM      30.00F
PLATTEVILLE    CLEAR     49  38  65 W6        30.01F
FORT MC COY    CLEAR     42  38  87 CALM      30.00F
CAMP DOUGLAS   PTCLDY    43  43 100 W1        29.98F
MAUSTON-NEW LI PTCLDY    45  39  79 CALM      29.98F
VIROQUA        FAIR      52  35  52 W5        30.00F
WIS DELLS      CLEAR     49  34  55 CALM      29.99F
$$

...ELSEWHERE IN WISCONSIN...


CITY           SKY/WX    TMP DP  RH WIND       PRES   REMARKS
MILWAUKEE      PTCLDY    44  34  67 CALM      30.00F
MADISON        CLEAR     44  36  73 CALM      30.00F
GREEN BAY      CLEAR     47  36  65 CALM      29.98F
EAU CLAIRE     CLEAR     44  36  73 CALM      29.98F
BLACK RVR FLS  FAIR      39  37  91 CALM      29.99S
MEDFORD        PTCLDY    45  36  70 CALM      29.98S
WAUSAU         PTCLDY    49  36  61 CALM      29.96F
WIS RAPIDS     CLEAR     43  34  70 CALM      29.99F
MARSHFIELD     PTCLDY    48  34  58 W6        29.97F
RICE LAKE      CLEAR     46  40  78 CALM      30.00S
$$

...NORTHEAST IOWA...


CITY           SKY/WX    TMP DP  RH WIND       PRES   REMARKS
WATERLOO       CLEAR     44  40  85 W3        30.03F
DUBUQUE        CLEAR     46  39  76 SW5       30.02F
DECORAH        CLEAR     50  39  66 CALM      30.01F
MASON CITY     PTCLDY    45  41  86 S6        30.05S
CHARLES CITY   MOCLDY    48  41  76 SW3       30.04S
OELWEIN        PTCLDY    46  41  81 W8        30.04S
$$

...ELSEWHERE IN IOWA...


CITY           SKY/WX    TMP DP  RH WIND       PRES   REMARKS
DES MOINES     CLEAR     48  40  73 CALM      30.05S
IOWA CITY      CLOUDY    46  42  86 CALM      30.05S
FORT DODGE     CLEAR     45  37  76 CALM      30.05S
MARSHALLTOWN   PTCLDY    46  41  82 CALM      30.04F
CEDAR RAPIDS   MOCLDY    45  42  89 W7        30.03S
$$

...NORTHERN ILLINOIS...


CITY           SKY/WX    TMP DP  RH WIND       PRES   REMARKS
CHICAGO-OHARE  CLEAR     44  35  70 NW3       29.99F
CHICAGO-MIDWAY PTCLDY    48  34  58 CALM      30.00F
MOLINE         PTCLDY    47  43  86 CALM      30.02S
ROCKFORD       CLEAR     44  38  79 CALM      30.03F
PEORIA         CLOUDY    49  44  83 NE3       30.02S
$$

NOTE: "FAIR" INDICATES FEW OR NO CLOUDS BELOW 12,000 FEET WITH NO
SIGNIFICANT WEATHER AND/OR OBSTRUCTIONS TO VISIBILITY. WIND
SPEEDS ARE IN MILES-PER-HOUR.




USA.gov is the U.S. government's official web portal to all federal, state and local government web resources and services.